Lincoln County, Oregon, United States
Lat: 44.65N, Lon: 123.85W
Wx Zone: ORZ004
Local Info
Past Weather Observations for Yesterday

NOTE: This archive is for the closest National Weather Service station to Lincoln County. Information may differ from the station used for current weather conditions.

Click here for Long-term Archive

Time Weather Temperature Dewpoint Humidity Pressure Winds Precip Visibility
23:55
Clear
Fog And Mist
46°F / 8°C 46°F / 8°C 100% 30.09 in
(1019 mb)
Calm - 5SM
23:35
Clear
Fog And Mist
46°F / 8°C 46°F / 8°C 100% 30.09 in
(1019 mb)
Calm - 5SM
23:15
Partly Cloudy
Fog And Mist
46°F / 8°C 46°F / 8°C 100% 30.09 in
(1019 mb)
Calm - 5SM
22:55
Overcast
Fog And Mist
46°F / 8°C 46°F / 8°C 100% 30.09 in
(1019 mb)
Calm - 3/4SM
22:35
Overcast
Fog
48°F / 9°C 48°F / 9°C 100% 30.09 in
(1019 mb)
Calm - 1/4SM
22:15
Overcast
Fog
48°F / 9°C 48°F / 9°C 100% 30.09 in
(1019 mb)
Calm - 1/4SM
21:55
Overcast
Fog And Mist
48°F / 9°C 48°F / 9°C 100% 30.09 in
(1019 mb)
Calm - 1 1/2SM
21:35
Mostly Cloudy
Fog And Mist
50°F / 10°C 50°F / 10°C 100% 30.09 in
(1019 mb)
Calm - 4SM
21:15
Overcast
Fog And Mist
52°F / 11°C 50°F / 10°C 94% 30.09 in
(1019 mb)
Calm - 3SM
20:55
Fog And Mist
52°F / 11°C 50°F / 10°C 94% 30.09 in
(1019 mb)
N 6.9 mph
(N 11 kph)
- 3SM
20:35
Clear
Fog And Mist
52°F / 11°C 52°F / 11°C 100% 30.09 in
(1019 mb)
Calm - 4SM
20:15
Clear
Fog And Mist
52°F / 11°C 52°F / 11°C 100% 30.09 in
(1019 mb)
NNW 4.6 mph
(NNW 7 kph)
- 4SM
19:55
Clear
Fog And Mist
52°F / 11°C 52°F / 11°C 100% 30.09 in
(1019 mb)
N 4.6 mph
(N 7 kph)
- 5SM
19:35
Clear
Fog And Mist
54°F / 12°C 52°F / 11°C 94% 30.09 in
(1019 mb)
N 6.9 mph
(N 11 kph)
- 5SM
19:15
Clear
Fog And Mist
54°F / 12°C 52°F / 11°C 94% 30.09 in
(1019 mb)
N 6.9 mph
(N 11 kph)
- 5SM
18:55
Clear
Fog And Mist
54°F / 12°C 52°F / 11°C 94% 30.09 in
(1019 mb)
N 8.1 mph
(N 13 kph)
- 5SM
18:35
Clear
54°F / 12°C 52°F / 11°C 94% 30.09 in
(1019 mb)
NNW 9.2 mph
(NNW 15 kph)
- 7SM
18:15
Clear
Fog And Mist
54°F / 12°C 52°F / 11°C 94% 30.09 in
(1019 mb)
NNW 13.8 mph
(NNW 22 kph)
- 5SM
17:55
Clear
Fog And Mist
55°F / 13°C 52°F / 11°C 88% 30.09 in
(1019 mb)
N 13.8 mph
(N 22 kph)
- 5SM
17:35
Clear
55°F / 13°C 52°F / 11°C 88% 30.09 in
(1019 mb)
N 15 mph
(N 24 kph)
- 7SM
17:15
Clear
55°F / 13°C 52°F / 11°C 88% 30.09 in
(1019 mb)
N 19.6 mph
(N 32 kph)
- 7SM
16:55
Clear
55°F / 13°C 52°F / 11°C 88% 30.09 in
(1019 mb)
N 19.6 mph
(N 32 kph)
- 7SM
16:35
Clear
57°F / 14°C 52°F / 11°C 82% 30.09 in
(1019 mb)
N 19.6 mph
(N 32 kph)
- 7SM
16:15
Clear
59°F / 15°C 52°F / 11°C 77% 30.09 in
(1019 mb)
N 17.3 mph
(N 28 kph)
- 7SM
15:55
Clear
59°F / 15°C 52°F / 11°C 77% 30.12 in
(1020 mb)
N 17.3 mph
(N 28 kph)
- 7SM
15:35
Clear
59°F / 15°C 52°F / 11°C 77% 30.12 in
(1020 mb)
N 18.4 mph
(N 30 kph)
- 7SM
15:15
Clear
59°F / 15°C 54°F / 12°C 82% 30.12 in
(1020 mb)
N 16.1 mph
(N 26 kph)
- 7SM
14:55
Clear
59°F / 15°C 54°F / 12°C 82% 30.12 in
(1020 mb)
N 18.4 mph
(N 30 kph)
- 7SM
14:35
Clear
59°F / 15°C 54°F / 12°C 82% 30.12 in
(1020 mb)
N 13.8 mph
(N 22 kph)
- 7SM
14:15
Clear
59°F / 15°C 54°F / 12°C 82% 30.15 in
(1021 mb)
N 16.1 mph
(N 26 kph)
- 7SM
13:55
Clear
59°F / 15°C 54°F / 12°C 82% 30.15 in
(1021 mb)
N 19.6 mph
(N 32 kph)
- 7SM
13:35
Clear
61°F / 16°C 54°F / 12°C 77% 30.15 in
(1021 mb)
N 21.9 mph
(N 35 kph)
- 7SM
13:15
Clear
61°F / 16°C 54°F / 12°C 77% 30.15 in
(1021 mb)
N 17.3 mph
(N 28 kph)
- 7SM
12:55
Clear
61°F / 16°C 54°F / 12°C 77% 30.15 in
(1021 mb)
N 20.7 mph
(N 33 kph)
- 7SM
12:35
Clear
61°F / 16°C 54°F / 12°C 77% 30.15 in
(1021 mb)
NNW 23 mph
(NNW 37 kph)
- 7SM
12:15
Clear
61°F / 16°C 54°F / 12°C 77% 30.18 in
(1022 mb)
NNW 16.1 mph
(NNW 26 kph)
- 10SM
11:55
Clear
61°F / 16°C 54°F / 12°C 77% 30.18 in
(1022 mb)
NNW 18.4 mph
(NNW 30 kph)
- 7SM
11:35
Clear
61°F / 16°C 54°F / 12°C 77% 30.18 in
(1022 mb)
N 16.1 mph
(N 26 kph)
- 10SM
11:15
Clear
61°F / 16°C 54°F / 12°C 77% 30.18 in
(1022 mb)
NNW 18.4 mph
(NNW 30 kph)
- 7SM
10:55
Clear
61°F / 16°C 54°F / 12°C 77% 30.18 in
(1022 mb)
NNW 17.3 mph
(NNW 28 kph)
- 7SM
10:35
Clear
61°F / 16°C 55°F / 13°C 83% 30.18 in
(1022 mb)
N 13.8 mph
(N 22 kph)
- 7SM
10:15
Clear
61°F / 16°C 55°F / 13°C 83% 30.18 in
(1022 mb)
N 10.4 mph
(N 17 kph)
- 7SM
09:55
Partly Cloudy
61°F / 16°C 55°F / 13°C 83% 30.21 in
(1023 mb)
N 10.4 mph
(N 17 kph)
- 7SM
09:35
Clear
61°F / 16°C 55°F / 13°C 83% 30.21 in
(1023 mb)
N 8.1 mph
(N 13 kph)
- 7SM
09:15
Clear
61°F / 16°C 57°F / 14°C 88% 30.21 in
(1023 mb)
NNW 9.2 mph
(NNW 15 kph)
- 7SM
08:55
Clear
61°F / 16°C 57°F / 14°C 88% 30.21 in
(1023 mb)
NNW 4.6 mph
(NNW 7 kph)
- 7SM
08:35
Clear
61°F / 16°C 57°F / 14°C 88% 30.21 in
(1023 mb)
N 5.8 mph
(N 9 kph)
- 7SM
08:15
Clear
Fog And Mist
59°F / 15°C 57°F / 14°C 94% 30.21 in
(1023 mb)
N 5.8 mph
(N 9 kph)
- 4SM
07:55
Clear
59°F / 15°C 59°F / 15°C 100% 30.21 in
(1023 mb)
NNW 5.8 mph
(NNW 9 kph)
- 7SM
07:35
Clear
Fog And Mist
55°F / 13°C 55°F / 13°C 100% 30.18 in
(1022 mb)
N 3.5 mph
(N 6 kph)
- 4SM
07:15
Clear
Fog And Mist
55°F / 13°C 55°F / 13°C 100% 30.18 in
(1022 mb)
Calm - 5SM
06:55
Clear
55°F / 13°C 55°F / 13°C 100% 30.18 in
(1022 mb)
NNW 5.8 mph
(NNW 9 kph)
- 10SM
06:35
Clear
54°F / 12°C 54°F / 12°C 100% 30.18 in
(1022 mb)
ENE 4.6 mph
(ENE 7 kph)
- 10SM
06:15
Clear
54°F / 12°C 54°F / 12°C 100% 30.18 in
(1022 mb)
ENE 3.5 mph
(ENE 6 kph)
- 10SM
05:55
Clear
52°F / 11°C 52°F / 11°C 100% 30.18 in
(1022 mb)
Calm - 10SM
05:35
Clear
52°F / 11°C 52°F / 11°C 100% 30.18 in
(1022 mb)
Calm - 7SM
05:15
Clear
Fog And Mist
52°F / 11°C 52°F / 11°C 100% 30.18 in
(1022 mb)
Calm - 4SM
04:55
Clear
Fog And Mist
54°F / 12°C 54°F / 12°C 100% 30.18 in
(1022 mb)
Calm - 5SM
04:35
Clear
Fog And Mist
54°F / 12°C 54°F / 12°C 100% 30.18 in
(1022 mb)
Calm - 4SM
04:15
Clear
Fog And Mist
55°F / 13°C 55°F / 13°C 100% 30.18 in
(1022 mb)
Calm - 5SM
03:55
Mostly Cloudy
Fog And Mist
54°F / 12°C 54°F / 12°C 100% 30.18 in
(1022 mb)
Calm - 1 3/4SM
03:35
Overcast
Fog
55°F / 13°C 55°F / 13°C 100% 30.15 in
(1021 mb)
NNW 5.8 mph
(NNW 9 kph)
- 1/2SM
03:15
Overcast
Fog
55°F / 13°C 55°F / 13°C 100% 30.15 in
(1021 mb)
N 4.6 mph
(N 7 kph)
- 1/2SM
02:55
Overcast
Fog And Mist
55°F / 13°C 55°F / 13°C 100% 30.15 in
(1021 mb)
NNW 6.9 mph
(NNW 11 kph)
- 3SM
02:35
Partly Cloudy
Fog And Mist
55°F / 13°C 55°F / 13°C 100% 30.18 in
(1022 mb)
N 6.9 mph
(N 11 kph)
- 4SM
02:15
Partly Cloudy
57°F / 14°C 55°F / 13°C 94% 30.15 in
(1021 mb)
N 5.8 mph
(N 9 kph)
- 10SM
01:55
Overcast
59°F / 15°C 57°F / 14°C 94% 30.15 in
(1021 mb)
N 6.9 mph
(N 11 kph)
- 7SM
01:35
Overcast
57°F / 14°C 57°F / 14°C 100% 30.18 in
(1022 mb)
N 5.8 mph
(N 9 kph)
- 7SM
01:15
Overcast
59°F / 15°C 57°F / 14°C 94% 30.15 in
(1021 mb)
N 8.1 mph
(N 13 kph)
- 7SM
00:55
Overcast
57°F / 14°C 57°F / 14°C 100% 30.15 in
(1021 mb)
N 6.9 mph
(N 11 kph)
- 7SM
00:35
Overcast
57°F / 14°C 57°F / 14°C 100% 30.15 in
(1021 mb)
N 9.2 mph
(N 15 kph)
- 7SM
00:15
Overcast
59°F / 15°C 59°F / 15°C 100% 30.15 in
(1021 mb)
NNW 10.4 mph
(NNW 17 kph)
- 10SM
Time Weather Temperature Dewpoint Humidity Pressure Winds Precip Visibility


Weather for websites

WeatherForYou.com, LLC is not responsible for any damages or problems caused by this service. Current weather conditions are obtained from the closest station including government and personal stations which may have varying degrees of accuracy. Weather forecasts are derived from the NOAA NDFD. Like all things, this site belongs to Jesus Christ... He just trusts us to maintain it. If you have any questions or comments email webmaster@weatherforyou.com

Copyright © 2016, WeatherForYou.com LLC. All rights reserved.